Date,TemperatureHighF,TemperatureAvgF,TemperatureLowF,DewpointHighF,DewpointAvgF,DewpointLowF,HumidityHigh,HumidityAvg,HumidityLow,PressureMaxIn,PressureMinIn,WindSpeedMaxMPH,WindSpeedAvgMPH,GustSpeedMaxMPH,PrecipitationSumIn
2013-7-1,102,84,71,68,50,37,5,5,5,29.43,29.37,0,-999,0,0.12
2013-7-2,102,90,76,68,56,42,5,5,5,29.47,29.40,0,-999,0,0.26
2013-7-3,101,83,71,67,49,38,10,5,5,29.49,29.30,0,-999,0,0.24
2013-7-4,101,87,74,67,53,40,5,5,5,29.35,29.18,0,-999,0,0.21
2013-7-5,92,80,66,57,46,32,5,5,5,29.32,29.18,0,-999,0,0.30
2013-7-6,91,71,61,57,37,28,8,6,5,29.36,29.22,0,-999,0,0.09
2013-7-7,95,78,61,60,44,27,5,5,5,29.43,29.28,0,-999,0,0.18
2013-7-8,95,78,62,60,44,28,5,5,5,29.56,29.41,0,-999,0,0.18
2013-7-9,99,82,63,65,48,29,5,5,5,29.63,29.47,0,-999,0,0.18
2013-7-10,97,78,67,63,44,33,5,5,5,29.55,29.49,0,-999,0,0.16
2013-7-11,90,71,61,56,36,27,5,5,5,29.51,29.47,0,-999,0,0.00
2013-7-14,96,79,64,62,45,30,5,5,5,29.54,29.42,0,-999,0,0.00
2013-7-15,94,76,63,60,42,29,5,5,5,29.49,29.36,0,-999,0,0.03
2013-7-16,88,74,59,53,40,25,5,5,5,29.53,29.43,0,-999,0,0.03
2013-7-17,92,73,55,57,39,23,12,7,5,29.66,29.55,0,-999,0,0.03
2013-7-18,95,78,61,61,43,27,5,5,5,29.63,29.49,0,-999,0,0.03
2013-7-20,96,86,76,62,52,42,5,5,5,29.35,29.30,0,-999,0,0.00
2013-7-21,91,87,82,57,53,48,5,5,5,29.37,29.34,0,-999,0,0.00
2013-7-22,96,79,64,61,44,30,5,5,5,29.54,29.46,0,-999,0,0.03
2013-7-23,94,79,66,60,44,32,5,5,5,29.58,29.48,0,-999,0,0.06
2013-7-24,97,81,67,63,47,33,5,5,5,29.55,29.46,0,-999,0,0.00
2013-7-25,99,84,70,65,49,36,5,5,5,29.55,29.47,0,-999,0,0.03
2013-7-26,98,84,71,63,50,37,5,5,5,29.61,29.52,0,-999,0,0.05
2013-7-27,95,94,94,60,60,60,5,5,5,29.51,29.51,0,-999,0,0.00
2013-7-28,93,93,93,59,59,59,5,5,5,29.41,29.41,0,-999,0,0.00
2013-7-29,88,74,60,54,40,26,5,5,5,29.52,29.39,0,-999,0,0.00
2013-7-30,92,74,58,58,40,24,5,5,5,29.64,29.55,0,-999,0,0.00
2013-7-31,92,75,61,58,41,27,5,5,5,29.62,29.51,0,-999,0,0.00